2024-252C

Last updated on Thu Jan 23 2025 00:02:05 GMT+0000 (Coordinated Universal Time)

1 62456U 24252C 25021.58467654 -.00000190 00000+0 -43587-1 0 9992 2 62456 11.4595 355.6105 8010187 187.8727 139.0225 1.10005472 259
UTC large
Height (km)
Speed (km/s)
/
Latitude / Longitude
Inclination (degrees)
Orbital Period (minutes)
Azimuth
Elevation
Range (km)
Doppler Factor

Next 0 passes for location: London (51.5072 / 0.1276)

Sorry there are no passes over London.